Hourly Data Report for June 25, 2021

DRYDEN REGIONAL
ONTARIO
Current Station Operator: NAVCAN

49°49'39.000" N
92°44'39.000" W
412.70 m
6032125
71527
YHD

Download Data

Hourly Data (June 2021)
Hourly Data Report for June 25, 2021
TIME
LST
Temp Definition
°C
Dew Point Definition
°C
Rel Hum Definition
%
Precip. Amount Definition
mm

Wind Dir Definition
10's deg

Wind Spd Definition
km/h
Visibility Definition
km
Stn Press Definition
kPa
Hmdx Definition


Wind Chill Definition


Weather Definition


00:00 15.8 8.1 60 0.0 28 9 16.1 96.43     LegendNANA
01:00 14.6 7.7 63 0.0 24 9 16.1 96.45     LegendNANA
02:00 14.5 7.8 64 0.0 30 8 16.1 96.43     LegendNANA
03:00 12.4 7.9 74 0.0 25 9 16.1 96.45     LegendNANA
04:00 12.4 8.3 76 0.0 20 11 16.1 96.47     LegendNANA
05:00 13.7 10.5 81 0.0 19 11 16.1 96.47     LegendNANA
06:00 14.9 11.1 78 0.0 21 9 16.1 96.47     LegendNANA
07:00 16.5 10.8 69 0.0 21 11 16.1 96.48     LegendNANA
08:00 19.7 10.7 56 0.0 26 15 16.1 96.44     LegendNANA
09:00 22.1 11.0 49 0.0 24 13 16.1 96.46     LegendNANA
10:00 23.0 11.2 47 0.0 26 17 16.1 96.46 25   LegendNANA
11:00 24.7 10.9 41 0.0 27 18 16.1 96.42 26   LegendNANA
12:00 24.9 9.7 38 0.0 26 22 16.1 96.37 26   LegendNANA
13:00 25.6 10.6 38 0.0 25 21 16.1 96.34 27   LegendNANA
14:00 25.5 9.4 36 0.0 26 21 16.1 96.31 27   LegendNANA
15:00 25.4 9.6 36 0.0 24 17 16.1 96.29 26   LegendNANA
16:00 24.8 10.4 40 0.0 25 15 16.1 96.30 26   LegendNANA
17:00 24.3 11.0 43 0.0 27 11 16.1 96.29 26   LegendNANA
18:00 23.8 12.0 47 0.0 27 11 16.1 96.28 26   LegendNANA
19:00 22.4 12.4 53 0.0 25 8 16.1 96.28 25   LegendNANA
20:00 20.8 12.6 59 0.0 27 8 16.1 96.24     LegendNANA
21:00 19.5 12.1 62 0.0 24 8 16.1 96.29     LegendNANA
22:00 18.8 12.2 65 0.0 21 5 16.1 96.31     LegendNANA
23:00 18.6 12.4 67 0.0 24 8 16.1 96.31     LegendNANA

Notes on Data Quality.

Legend

  • E = Estimated
  • M = Missing
  • NA = Not Available*
  • [empty] = Indicates an unobserved value
Date modified: